Location: Unspecified
(41.5000°N, 0.0000°E)
Time: 00:39:16
(UTC+00:00)

Vanguard 2 - Pass Details

Date: 24 June 2019
Orbit: 553 x 2938 km, 32.9° (Epoch: 22 July)

Event Time Altitude Azimuth Distance (km) Brightness Sun altitude
Rises 12:41:23 0° 268° (W) 4,163 11.4 70.2°
Reaches altitude 10° 12:44:15 10° 257° (WSW) 3,495 11.2 69.9°
Maximum altitude 12:52:02 30° 200° (SSW) 2,957 11.4 69.2°
Drops below altitude 10° 13:03:24 10° 148° (SSE) 5,149 12.0 67.9°
Sets 13:08:47 0° 139° (SE) 6,455 12.3 67.2°
